Regional Weather Roundup
Issued by NWS

Home | Current Version | Previous Version | Graphics & Text | Print | Product List | Glossary On
Versions: 1 2 3 4 5 6 7 8 9 10 11 12 13 14 15 16 17 18 19 20 21 22 23 24 25 26 27 28 29 30 31 32 33 34 35 36 37 38 39 40 41 42 43 44 45 46 47 48 49 50
946
ASUS43 KOAX 260002
RWRNE

WEATHER ROUNDUP FOR NEBRASKA
NATIONAL WEATHER SERVICE OMAHA NE
700 PM CDT WED MAY 25 2016

NOTES: SATELLITE DATA IS BEING USED TO AUGMENT CLOUD COVER ABOVE
       12000 FEET.
       "FAIR" INDICATES FEW OR NO CLOUDS BELOW 12,000 FEET WITH NO
       SIGNIFICANT WEATHER AND/OR OBSTRUCTIONS TO VISIBILITY.

  * THESE STATIONS DO NOT REPORT WEATHER SUCH AS RAIN...SNOW OR FOG.

NEZ001>004-019>022-054>056-260100-
NEBRASKA PANHANDLE

CITY           SKY/WX    TMP DP  RH WIND       PRES   REMARKS
SCOTTSBLUFF    SUNNY     72  37  28 SW14      29.90S
6HR MIN TEMP:  66; 6HR MAX TEMP:  74; 6HR PCP: TRACE;

ALLIANCE       CLOUDY    67  36  31 S22       29.89F
6HR MIN TEMP:  62; 6HR MAX TEMP:  73; 6HR PCP:  0.01;

CHADRON        SUNNY     69  39  33 NW7       29.89F
6HR MIN TEMP:  65; 6HR MAX TEMP:  74; 6HR PCP: TRACE;

SIDNEY         SUNNY     63  50  63 NE13      29.94F
6HR MIN TEMP:  53; 6HR MAX TEMP:  75; 6HR PCP:  0.08;

$$

NEZ057>060-069>072-079>082-260100-
SOUTHWEST NEBRASKA

CITY           SKY/WX    TMP DP  RH WIND       PRES   REMARKS
NORTH PLATTE   CLOUDY    71  45  39 N9        29.87S
6HR MIN TEMP:  71; 6HR MAX TEMP:  78; 6HR PCP: TRACE;

IMPERIAL       TSTM      60  46  59 NW38G48   29.91R
6HR MIN TEMP:  60; 6HR MAX TEMP:  78; 6HR PCP: TRACE;

LEXINGTON      SUNNY     76  57  52 CALM      29.85S
MCCOOK         SUNNY     78  55  44 CALM      29.85S
6HR MIN TEMP:  74; 6HR MAX TEMP:  82;

$$

NEZ005>010-023>029-035>040-094-260100-
NORTH CENTRAL NEBRASKA

CITY           SKY/WX    TMP DP  RH WIND       PRES   REMARKS
VALENTINE      PTSUNNY   71  44  37 W14       29.85S
6HR MIN TEMP:  62; 6HR MAX TEMP:  79; 6HR PCP: TRACE;

AINSWORTH      PTSUNNY   70  45  41 NW10G17   29.85S
BROKEN BOW     SUNNY     75  50  41 NW15      29.84S
6HR MIN TEMP:  73; 6HR MAX TEMP:  79;

ORD            MOSUNNY   79  56  45 SW5       29.81F
6HR MIN TEMP:  75; 6HR MAX TEMP:  81;

$$

NEZ041-046>049-061>064-073>077-083>087-260100-
SOUTH CENTRAL NEBRASKA

CITY           SKY/WX    TMP DP  RH WIND       PRES   REMARKS
GRAND ISLAND   MOSUNNY   75  64  68 S9        29.83F
6HR MIN TEMP:  74; 6HR MAX TEMP:  79;

HASTINGS       SUNNY     75  63  66 S6        29.84F
6HR MIN TEMP:  72; 6HR MAX TEMP:  76;

KEARNEY *      PTSUNNY   77  61  57 SE7       29.85S
YORK           MOSUNNY   77  64  65 SW5       29.83F
$$

NEZ011>018-030>034-042>045-260100-
NORTHEAST NEBRASKA

CITY           SKY/WX    TMP DP  RH WIND       PRES   REMARKS
NORFOLK        PTSUNNY   82  58  43 W6        29.80S
6HR MIN TEMP:  76; 6HR MAX TEMP:  82;

ALBION         SUNNY     79  58  48 W5        29.82S
BLAIR          CLOUDY    76  67  73 S8        29.83S
FREMONT        PTSUNNY   77  65  67 S8        29.83S
TEKAMAH        MOSUNNY   80  63  55 S10       29.81R
6HR MIN TEMP:  76; 6HR MAX TEMP:  83;

$$

NEZ050>053-065>068-078-088>093-260100-
SOUTHEAST NEBRASKA

CITY           SKY/WX    TMP DP  RH WIND       PRES   REMARKS
LINCOLN        MOSUNNY   77  68  73 S5        29.83S
6HR MIN TEMP:  74; 6HR MAX TEMP:  79;

OMAHA EPPLEY   PTSUNNY   78  66  66 S5        29.82S
6HR MIN TEMP:  76; 6HR MAX TEMP:  82;

FALLS CITY     PTSUNNY   78  68  71 S5        29.83S
6HR MIN TEMP:  74; 6HR MAX TEMP:  81;

PLATTSMOUTH    CLOUDY    77  69  77 NW5       29.84S
$$

NEZ044-045-051>053-067-260100-
OMAHA AREA

CITY           SKY/WX    TMP DP  RH WIND       PRES   REMARKS
OMAHA EPPLEY   PTSUNNY   78  66  66 S5        29.82S
6HR MIN TEMP:  76; 6HR MAX TEMP:  82;

BLAIR          CLOUDY    76  67  73 S8        29.83S
FREMONT        PTSUNNY   77  65  67 S8        29.83S
OFFUTT AFB     PTSUNNY   76  67  73 S6        29.82S
PLATTSMOUTH    CLOUDY    77  69  77 NW5       29.84S
$$




USA.gov is the U.S. government's official web portal to all federal, state and local government web resources and services.